Information on these data can be found in provided Readme document
Contact Info: Zachary Fasnacht (zachary.fasnacht@ssaihq.com); Nickolay Krotkov (nickolay.a.krotkov@nasa.gov); Lok Lamsal (lok.lamsal@nasa.gov)

FillValue: -999.
ScaleFactor: 1e15
Units: molecules/cm^2

Date(yyyy-mm-dd),City,Country,LonCenter,LatCenter,BoundingCoordinates,Median,Q1,Q3,Mean,Baseline_Median,Baseline_Q1,Baseline_Q3,Baseline_Mean,NumGoodSamples,NumTotalSamples
2015-01-01,MexicoCity,Mexico,-99.1333,19.4326,[-99.6333 18.9326 -98.6333 19.9326],3.908,2.166,7.53,6.03,4.273,2.281,7.031,5.39,135.0,547.0
2015-01-02,MexicoCity,Mexico,-99.1333,19.4326,[-99.6333 18.9326 -98.6333 19.9326],4.211,2.371,8.706,6.833,4.447,2.308,7.569,5.849,152.0,558.0
2015-01-03,MexicoCity,Mexico,-99.1333,19.4326,[-99.6333 18.9326 -98.6333 19.9326],4.372,2.561,8.827,7.073,4.617,2.525,7.971,6.171,144.0,559.0
2015-01-04,MexicoCity,Mexico,-99.1333,19.4326,[-99.6333 18.9326 -98.6333 19.9326],4.372,2.561,8.706,6.907,4.775,2.619,8.483,6.393,168.0,542.0
2015-01-05,MexicoCity,Mexico,-99.1333,19.4326,[-99.6333 18.9326 -98.6333 19.9326],5.179,2.799,11.909,7.976,4.916,2.685,9.0,6.602,142.0,555.0
2015-01-06,MexicoCity,Mexico,-99.1333,19.4326,[-99.6333 18.9326 -98.6333 19.9326],5.065,2.862,9.506,7.615,4.923,2.673,8.646,6.623,157.0,537.0
2015-01-07,MexicoCity,Mexico,-99.1333,19.4326,[-99.6333 18.9326 -98.6333 19.9326],4.921,2.41,10.651,7.85,4.944,2.695,8.482,6.613,133.0,561.0
2015-01-08,MexicoCity,Mexico,-99.1333,19.4326,[-99.6333 18.9326 -98.6333 19.9326],4.689,2.022,8.249,6.533,4.837,2.623,8.198,6.465,121.0,551.0
2015-01-09,MexicoCity,Mexico,-99.1333,19.4326,[-99.6333 18.9326 -98.6333 19.9326],4.822,3.045,8.767,6.923,5.105,2.857,8.942,7.042,112.0,522.0
2015-01-10,MexicoCity,Mexico,-99.1333,19.4326,[-99.6333 18.9326 -98.6333 19.9326],5.01,3.231,9.249,7.2,5.291,2.94,9.802,7.519,90.0,518.0
2015-01-11,MexicoCity,Mexico,-99.1333,19.4326,[-99.6333 18.9326 -98.6333 19.9326],4.822,3.15,8.555,6.698,5.271,2.887,9.277,7.337,115.0,511.0
2015-01-12,MexicoCity,Mexico,-99.1333,19.4326,[-99.6333 18.9326 -98.6333 19.9326],4.822,3.15,8.555,6.704,5.397,2.89,9.84,7.61,114.0,521.0
2015-01-13,MexicoCity,Mexico,-99.1333,19.4326,[-99.6333 18.9326 -98.6333 19.9326],5.18,3.23,8.767,6.983,5.077,2.922,9.659,7.421,135.0,498.0
2015-01-14,MexicoCity,Mexico,-99.1333,19.4326,[-99.6333 18.9326 -98.6333 19.9326],5.18,3.23,8.767,6.983,5.155,2.798,9.274,7.432,135.0,507.0
2015-01-15,MexicoCity,Mexico,-99.1333,19.4326,[-99.6333 18.9326 -98.6333 19.9326],4.676,2.502,6.575,5.79,5.029,2.698,9.48,7.306,164.0,501.0
2015-01-16,MexicoCity,Mexico,-99.1333,19.4326,[-99.6333 18.9326 -98.6333 19.9326],4.676,2.41,6.575,5.758,5.216,2.721,9.781,7.469,172.0,529.0
2015-01-17,MexicoCity,Mexico,-99.1333,19.4326,[-99.6333 18.9326 -98.6333 19.9326],4.306,1.987,6.233,5.065,4.949,2.535,9.1,7.112,163.0,511.0
2015-01-18,MexicoCity,Mexico,-99.1333,19.4326,[-99.6333 18.9326 -98.6333 19.9326],4.306,1.987,6.233,5.065,5.032,2.548,9.066,7.155,163.0,520.0
2015-01-19,MexicoCity,Mexico,-99.1333,19.4326,[-99.6333 18.9326 -98.6333 19.9326],4.306,2.022,6.233,4.935,4.829,2.467,9.044,7.014,139.0,517.0
2015-01-20,MexicoCity,Mexico,-99.1333,19.4326,[-99.6333 18.9326 -98.6333 19.9326],4.664,2.29,6.716,5.661,4.858,2.444,8.639,6.917,165.0,502.0
2015-01-21,MexicoCity,Mexico,-99.1333,19.4326,[-99.6333 18.9326 -98.6333 19.9326],4.423,2.07,6.492,5.659,4.807,2.424,8.734,6.948,150.0,514.0
2015-01-22,MexicoCity,Mexico,-99.1333,19.4326,[-99.6333 18.9326 -98.6333 19.9326],4.36,2.125,6.408,5.403,4.788,2.477,10.077,7.065,178.0,493.0
2015-01-23,MexicoCity,Mexico,-99.1333,19.4326,[-99.6333 18.9326 -98.6333 19.9326],4.169,2.088,6.283,5.3,4.811,2.503,10.205,7.186,158.0,515.0
2015-01-24,MexicoCity,Mexico,-99.1333,19.4326,[-99.6333 18.9326 -98.6333 19.9326],4.169,1.91,6.408,5.138,4.725,2.381,9.36,6.913,183.0,545.0
2015-01-25,MexicoCity,Mexico,-99.1333,19.4326,[-99.6333 18.9326 -98.6333 19.9326],3.922,1.904,6.456,5.047,4.674,2.301,8.706,6.601,200.0,562.0
2015-01-26,MexicoCity,Mexico,-99.1333,19.4326,[-99.6333 18.9326 -98.6333 19.9326],3.92,1.898,6.456,5.11,4.711,2.33,9.019,6.727,175.0,561.0
2015-01-27,MexicoCity,Mexico,-99.1333,19.4326,[-99.6333 18.9326 -98.6333 19.9326],3.92,1.898,6.456,5.11,4.747,2.345,8.564,6.415,175.0,554.0
2015-01-28,MexicoCity,Mexico,-99.1333,19.4326,[-99.6333 18.9326 -98.6333 19.9326],3.544,1.664,6.143,4.657,5.037,2.486,8.931,6.554,154.0,564.0
2015-01-29,MexicoCity,Mexico,-99.1333,19.4326,[-99.6333 18.9326 -98.6333 19.9326],3.81,1.664,6.456,4.77,5.277,2.486,9.184,6.6,169.0,541.0
2015-01-30,MexicoCity,Mexico,-99.1333,19.4326,[-99.6333 18.9326 -98.6333 19.9326],4.36,2.044,7.045,5.421,5.538,2.642,9.504,6.777,131.0,547.0
2015-01-31,MexicoCity,Mexico,-99.1333,19.4326,[-99.6333 18.9326 -98.6333 19.9326],5.045,2.389,7.657,5.948,5.583,2.692,9.365,6.666,160.0,542.0
2015-02-01,MexicoCity,Mexico,-99.1333,19.4326,[-99.6333 18.9326 -98.6333 19.9326],5.128,2.8,7.686,6.07,5.94,2.899,9.666,6.911,160.0,572.0
2015-02-02,MexicoCity,Mexico,-99.1333,19.4326,[-99.6333 18.9326 -98.6333 19.9326],5.312,2.872,7.657,6.013,5.66,2.857,9.415,6.603,180.0,553.0
2015-02-03,MexicoCity,Mexico,-99.1333,19.4326,[-99.6333 18.9326 -98.6333 19.9326],5.373,2.942,7.934,6.42,5.827,2.931,9.493,6.83,211.0,564.0
2015-02-04,MexicoCity,Mexico,-99.1333,19.4326,[-99.6333 18.9326 -98.6333 19.9326],5.229,2.872,7.484,5.876,5.846,3.096,9.365,6.736,185.0,563.0
2015-02-05,MexicoCity,Mexico,-99.1333,19.4326,[-99.6333 18.9326 -98.6333 19.9326],5.229,2.872,7.045,5.875,5.492,3.135,8.797,6.559,186.0,548.0
2015-02-06,MexicoCity,Mexico,-99.1333,19.4326,[-99.6333 18.9326 -98.6333 19.9326],5.525,3.0,7.686,6.236,5.606,3.111,9.168,6.659,158.0,559.0
2015-02-07,MexicoCity,Mexico,-99.1333,19.4326,[-99.6333 18.9326 -98.6333 19.9326],5.525,3.0,7.686,6.236,5.506,3.013,9.056,6.59,158.0,539.0
2015-02-08,MexicoCity,Mexico,-99.1333,19.4326,[-99.6333 18.9326 -98.6333 19.9326],5.985,3.47,8.045,6.702,5.766,3.054,9.087,6.681,133.0,561.0
2015-02-09,MexicoCity,Mexico,-99.1333,19.4326,[-99.6333 18.9326 -98.6333 19.9326],5.631,3.338,8.017,6.543,5.699,3.143,9.151,6.695,119.0,546.0
2015-02-10,MexicoCity,Mexico,-99.1333,19.4326,[-99.6333 18.9326 -98.6333 19.9326],5.631,3.338,8.017,6.543,5.459,2.94,8.852,6.519,119.0,516.0
2015-02-11,MexicoCity,Mexico,-99.1333,19.4326,[-99.6333 18.9326 -98.6333 19.9326],5.631,3.338,8.017,6.553,5.22,2.77,8.655,6.377,129.0,515.0
2015-02-12,MexicoCity,Mexico,-99.1333,19.4326,[-99.6333 18.9326 -98.6333 19.9326],6.51,3.385,8.9,7.035,5.211,2.772,8.552,6.337,155.0,506.0
2015-02-13,MexicoCity,Mexico,-99.1333,19.4326,[-99.6333 18.9326 -98.6333 19.9326],6.51,3.477,8.9,7.156,5.314,2.775,8.526,6.373,140.0,515.0
2015-02-14,MexicoCity,Mexico,-99.1333,19.4326,[-99.6333 18.9326 -98.6333 19.9326],6.219,3.338,8.9,7.229,5.157,2.704,8.542,6.34,160.0,493.0
2015-02-15,MexicoCity,Mexico,-99.1333,19.4326,[-99.6333 18.9326 -98.6333 19.9326],5.985,2.773,8.662,7.43,4.98,2.584,8.489,6.279,123.0,500.0
2015-02-16,MexicoCity,Mexico,-99.1333,19.4326,[-99.6333 18.9326 -98.6333 19.9326],5.425,2.901,7.929,6.593,4.863,2.565,7.932,6.11,153.0,491.0
2015-02-17,MexicoCity,Mexico,-99.1333,19.4326,[-99.6333 18.9326 -98.6333 19.9326],5.412,2.708,8.456,6.791,4.941,2.562,8.433,6.304,142.0,520.0
2015-02-18,MexicoCity,Mexico,-99.1333,19.4326,[-99.6333 18.9326 -98.6333 19.9326],4.835,2.597,7.929,6.223,4.798,2.531,8.152,6.07,126.0,502.0
2015-02-19,MexicoCity,Mexico,-99.1333,19.4326,[-99.6333 18.9326 -98.6333 19.9326],4.835,2.597,8.456,6.419,4.828,2.511,8.224,6.126,155.0,512.0
2015-02-20,MexicoCity,Mexico,-99.1333,19.4326,[-99.6333 18.9326 -98.6333 19.9326],4.835,2.597,8.456,6.421,4.868,2.406,8.27,6.194,154.0,510.0
2015-02-21,MexicoCity,Mexico,-99.1333,19.4326,[-99.6333 18.9326 -98.6333 19.9326],4.773,2.512,8.456,6.296,4.736,2.391,7.955,6.021,178.0,496.0
2015-02-22,MexicoCity,Mexico,-99.1333,19.4326,[-99.6333 18.9326 -98.6333 19.9326],4.773,2.512,8.456,6.296,4.866,2.441,8.107,6.071,178.0,508.0
2015-02-23,MexicoCity,Mexico,-99.1333,19.4326,[-99.6333 18.9326 -98.6333 19.9326],4.773,2.634,8.456,6.168,4.645,2.46,7.817,5.879,206.0,489.0
2015-02-24,MexicoCity,Mexico,-99.1333,19.4326,[-99.6333 18.9326 -98.6333 19.9326],4.878,2.912,8.662,6.412,4.764,2.632,7.634,5.897,199.0,513.0
2015-02-25,MexicoCity,Mexico,-99.1333,19.4326,[-99.6333 18.9326 -98.6333 19.9326],4.82,2.901,7.929,6.197,4.785,2.644,7.839,5.964,226.0,543.0
2015-02-26,MexicoCity,Mexico,-99.1333,19.4326,[-99.6333 18.9326 -98.6333 19.9326],4.773,2.708,7.968,6.165,4.896,2.768,7.879,6.098,248.0,557.0
2015-02-27,MexicoCity,Mexico,-99.1333,19.4326,[-99.6333 18.9326 -98.6333 19.9326],4.578,2.667,7.893,5.749,4.911,2.817,7.871,5.977,232.0,557.0
2015-02-28,MexicoCity,Mexico,-99.1333,19.4326,[-99.6333 18.9326 -98.6333 19.9326],4.652,2.708,7.893,5.79,4.735,2.803,7.464,5.788,251.0,551.0
2015-03-01,MexicoCity,Mexico,-99.1333,19.4326,[-99.6333 18.9326 -98.6333 19.9326],4.488,2.708,7.716,5.588,4.622,2.829,7.391,5.702,241.0,561.0
2015-03-02,MexicoCity,Mexico,-99.1333,19.4326,[-99.6333 18.9326 -98.6333 19.9326],4.488,2.708,7.832,5.664,4.589,2.852,7.231,5.711,255.0,539.0
2015-03-03,MexicoCity,Mexico,-99.1333,19.4326,[-99.6333 18.9326 -98.6333 19.9326],4.299,2.654,8.351,5.899,4.604,2.786,7.445,5.673,217.0,549.0
2015-03-04,MexicoCity,Mexico,-99.1333,19.4326,[-99.6333 18.9326 -98.6333 19.9326],4.265,2.644,7.988,5.829,4.529,2.788,6.976,5.445,210.0,541.0
2015-03-05,MexicoCity,Mexico,-99.1333,19.4326,[-99.6333 18.9326 -98.6333 19.9326],4.164,2.531,7.506,5.512,4.481,2.726,6.817,5.306,213.0,571.0
2015-03-06,MexicoCity,Mexico,-99.1333,19.4326,[-99.6333 18.9326 -98.6333 19.9326],4.146,2.531,7.302,5.227,4.416,2.641,6.878,5.188,184.0,552.0
2015-03-07,MexicoCity,Mexico,-99.1333,19.4326,[-99.6333 18.9326 -98.6333 19.9326],4.144,2.457,7.302,5.172,4.262,2.651,6.827,5.041,186.0,561.0
2015-03-08,MexicoCity,Mexico,-99.1333,19.4326,[-99.6333 18.9326 -98.6333 19.9326],4.146,2.531,7.163,5.135,4.125,2.587,6.768,5.01,162.0,561.0
2015-03-09,MexicoCity,Mexico,-99.1333,19.4326,[-99.6333 18.9326 -98.6333 19.9326],4.144,2.404,7.144,4.99,4.002,2.467,6.678,4.808,180.0,545.0
2015-03-10,MexicoCity,Mexico,-99.1333,19.4326,[-99.6333 18.9326 -98.6333 19.9326],4.035,2.294,7.163,4.884,4.036,2.457,6.852,4.905,152.0,556.0
2015-03-11,MexicoCity,Mexico,-99.1333,19.4326,[-99.6333 18.9326 -98.6333 19.9326],3.929,1.876,6.884,4.632,3.771,2.105,6.606,4.753,165.0,535.0
2015-03-12,MexicoCity,Mexico,-99.1333,19.4326,[-99.6333 18.9326 -98.6333 19.9326],3.58,1.737,6.884,4.579,3.616,2.169,6.215,4.592,138.0,559.0
2015-03-13,MexicoCity,Mexico,-99.1333,19.4326,[-99.6333 18.9326 -98.6333 19.9326],3.488,1.438,6.845,4.33,3.643,2.064,6.259,4.657,106.0,543.0
2015-03-14,MexicoCity,Mexico,-99.1333,19.4326,[-99.6333 18.9326 -98.6333 19.9326],3.44,1.449,6.845,4.313,3.686,2.105,6.272,4.694,96.0,514.0
2015-03-15,MexicoCity,Mexico,-99.1333,19.4326,[-99.6333 18.9326 -98.6333 19.9326],2.654,1.374,4.35,3.738,3.643,2.055,6.139,4.71,78.0,513.0
2015-03-16,MexicoCity,Mexico,-99.1333,19.4326,[-99.6333 18.9326 -98.6333 19.9326],2.654,1.225,4.222,3.53,3.801,2.114,6.308,4.757,71.0,505.0
2015-03-17,MexicoCity,Mexico,-99.1333,19.4326,[-99.6333 18.9326 -98.6333 19.9326],1.882,0.978,3.609,2.248,3.776,2.078,6.28,4.626,65.0,516.0
2015-03-18,MexicoCity,Mexico,-99.1333,19.4326,[-99.6333 18.9326 -98.6333 19.9326],2.251,1.024,4.035,3.221,3.773,2.004,6.32,4.632,77.0,493.0
2015-03-19,MexicoCity,Mexico,-99.1333,19.4326,[-99.6333 18.9326 -98.6333 19.9326],2.252,1.013,4.035,3.266,3.722,1.99,6.238,4.56,75.0,502.0
2015-03-20,MexicoCity,Mexico,-99.1333,19.4326,[-99.6333 18.9326 -98.6333 19.9326],2.288,1.199,4.166,3.632,3.847,2.038,6.337,4.621,60.0,492.0
2015-03-21,MexicoCity,Mexico,-99.1333,19.4326,[-99.6333 18.9326 -98.6333 19.9326],2.319,1.246,4.222,3.685,3.83,2.07,6.165,4.642,66.0,522.0
2015-03-22,MexicoCity,Mexico,-99.1333,19.4326,[-99.6333 18.9326 -98.6333 19.9326],2.319,1.246,4.166,3.617,3.862,1.991,6.212,4.674,67.0,505.0
2015-03-23,MexicoCity,Mexico,-99.1333,19.4326,[-99.6333 18.9326 -98.6333 19.9326],2.734,1.568,5.639,4.1,3.894,2.176,5.978,4.633,94.0,510.0
2015-03-24,MexicoCity,Mexico,-99.1333,19.4326,[-99.6333 18.9326 -98.6333 19.9326],2.754,1.654,7.198,4.609,3.876,2.198,6.076,4.682,96.0,512.0
2015-03-25,MexicoCity,Mexico,-99.1333,19.4326,[-99.6333 18.9326 -98.6333 19.9326],2.722,1.607,6.223,4.439,3.676,2.106,5.852,4.403,114.0,499.0
2015-03-26,MexicoCity,Mexico,-99.1333,19.4326,[-99.6333 18.9326 -98.6333 19.9326],2.775,1.664,7.198,4.833,3.68,2.095,5.813,4.444,101.0,513.0
2015-03-27,MexicoCity,Mexico,-99.1333,19.4326,[-99.6333 18.9326 -98.6333 19.9326],2.754,1.654,6.095,4.332,3.687,2.038,6.006,4.544,123.0,492.0
2015-03-28,MexicoCity,Mexico,-99.1333,19.4326,[-99.6333 18.9326 -98.6333 19.9326],2.754,1.654,6.095,4.332,3.623,1.974,5.917,4.407,123.0,515.0
2015-03-29,MexicoCity,Mexico,-99.1333,19.4326,[-99.6333 18.9326 -98.6333 19.9326],2.895,1.898,4.614,4.112,3.595,1.999,5.657,4.398,146.0,542.0
2015-03-30,MexicoCity,Mexico,-99.1333,19.4326,[-99.6333 18.9326 -98.6333 19.9326],3.033,2.035,5.639,4.387,3.707,2.066,5.915,4.481,175.0,555.0
2015-03-31,MexicoCity,Mexico,-99.1333,19.4326,[-99.6333 18.9326 -98.6333 19.9326],3.065,2.061,5.637,4.346,3.579,1.949,5.788,4.38,190.0,552.0
2015-04-01,MexicoCity,Mexico,-99.1333,19.4326,[-99.6333 18.9326 -98.6333 19.9326],3.21,2.094,6.302,4.806,3.553,1.952,6.028,4.465,204.0,546.0
2015-04-02,MexicoCity,Mexico,-99.1333,19.4326,[-99.6333 18.9326 -98.6333 19.9326],3.144,2.086,6.223,4.563,3.554,1.973,5.975,4.422,208.0,555.0
2015-04-03,MexicoCity,Mexico,-99.1333,19.4326,[-99.6333 18.9326 -98.6333 19.9326],3.293,2.129,7.19,4.984,3.568,2.035,6.195,4.6,229.0,532.0
2015-04-04,MexicoCity,Mexico,-99.1333,19.4326,[-99.6333 18.9326 -98.6333 19.9326],3.426,2.197,7.19,5.05,3.563,2.062,6.228,4.616,226.0,543.0
2015-04-05,MexicoCity,Mexico,-99.1333,19.4326,[-99.6333 18.9326 -98.6333 19.9326],3.401,2.161,7.19,5.026,3.55,2.1,6.233,4.599,222.0,532.0
2015-04-06,MexicoCity,Mexico,-99.1333,19.4326,[-99.6333 18.9326 -98.6333 19.9326],3.426,2.161,7.198,5.03,3.478,2.11,6.198,4.629,235.0,561.0
2015-04-07,MexicoCity,Mexico,-99.1333,19.4326,[-99.6333 18.9326 -98.6333 19.9326],3.401,2.094,6.846,4.904,3.479,2.122,6.136,4.55,213.0,546.0
2015-04-08,MexicoCity,Mexico,-99.1333,19.4326,[-99.6333 18.9326 -98.6333 19.9326],3.209,2.024,6.772,4.661,3.486,2.102,6.063,4.484,211.0,551.0
2015-04-09,MexicoCity,Mexico,-99.1333,19.4326,[-99.6333 18.9326 -98.6333 19.9326],3.265,2.098,6.846,4.813,3.589,2.181,6.225,4.701,214.0,548.0
2015-04-10,MexicoCity,Mexico,-99.1333,19.4326,[-99.6333 18.9326 -98.6333 19.9326],3.426,2.196,7.162,4.844,3.608,2.18,6.313,4.708,236.0,533.0
2015-04-11,MexicoCity,Mexico,-99.1333,19.4326,[-99.6333 18.9326 -98.6333 19.9326],3.476,2.199,7.664,5.153,3.635,2.173,6.318,4.675,214.0,545.0
2015-04-12,MexicoCity,Mexico,-99.1333,19.4326,[-99.6333 18.9326 -98.6333 19.9326],3.209,1.983,6.772,4.67,3.632,2.198,6.137,4.567,241.0,526.0
2015-04-13,MexicoCity,Mexico,-99.1333,19.4326,[-99.6333 18.9326 -98.6333 19.9326],3.435,1.757,7.319,4.895,3.727,2.227,6.266,4.603,218.0,551.0
2015-04-14,MexicoCity,Mexico,-99.1333,19.4326,[-99.6333 18.9326 -98.6333 19.9326],3.129,1.583,7.162,4.641,3.667,2.161,6.169,4.479,196.0,537.0
2015-04-15,MexicoCity,Mexico,-99.1333,19.4326,[-99.6333 18.9326 -98.6333 19.9326],3.129,1.577,7.19,4.734,3.776,2.262,6.297,4.627,178.0,510.0
2015-04-16,MexicoCity,Mexico,-99.1333,19.4326,[-99.6333 18.9326 -98.6333 19.9326],2.93,1.263,5.789,4.145,3.732,2.17,5.987,4.514,165.0,506.0
2015-04-17,MexicoCity,Mexico,-99.1333,19.4326,[-99.6333 18.9326 -98.6333 19.9326],2.947,1.356,6.17,4.213,3.717,2.158,6.029,4.502,176.0,500.0
2015-04-18,MexicoCity,Mexico,-99.1333,19.4326,[-99.6333 18.9326 -98.6333 19.9326],2.419,1.253,4.572,3.433,3.619,2.139,5.747,4.306,173.0,511.0
2015-04-19,MexicoCity,Mexico,-99.1333,19.4326,[-99.6333 18.9326 -98.6333 19.9326],2.303,1.199,4.581,3.346,3.453,2.093,5.574,4.229,193.0,487.0
2015-04-20,MexicoCity,Mexico,-99.1333,19.4326,[-99.6333 18.9326 -98.6333 19.9326],2.419,1.191,4.581,3.363,3.432,2.111,5.505,4.246,191.0,499.0
2015-04-21,MexicoCity,Mexico,-99.1333,19.4326,[-99.6333 18.9326 -98.6333 19.9326],2.303,1.253,4.572,3.303,3.417,2.108,5.437,4.183,181.0,494.0
2015-04-22,MexicoCity,Mexico,-99.1333,19.4326,[-99.6333 18.9326 -98.6333 19.9326],2.419,1.253,4.572,3.314,3.456,2.071,5.802,4.286,176.0,523.0
2015-04-23,MexicoCity,Mexico,-99.1333,19.4326,[-99.6333 18.9326 -98.6333 19.9326],2.419,1.298,4.572,3.339,3.416,2.042,5.879,4.293,158.0,506.0
2015-04-24,MexicoCity,Mexico,-99.1333,19.4326,[-99.6333 18.9326 -98.6333 19.9326],2.303,1.277,4.375,3.107,3.396,2.027,5.846,4.186,146.0,516.0
2015-04-25,MexicoCity,Mexico,-99.1333,19.4326,[-99.6333 18.9326 -98.6333 19.9326],2.085,1.253,4.072,2.784,3.328,2.036,5.844,4.116,124.0,516.0
2015-04-26,MexicoCity,Mexico,-99.1333,19.4326,[-99.6333 18.9326 -98.6333 19.9326],2.13,1.253,4.235,2.811,3.283,1.977,5.799,4.071,139.0,499.0
2015-04-27,MexicoCity,Mexico,-99.1333,19.4326,[-99.6333 18.9326 -98.6333 19.9326],2.303,1.305,4.581,3.012,3.421,2.037,6.077,4.242,112.0,513.0
2015-04-28,MexicoCity,Mexico,-99.1333,19.4326,[-99.6333 18.9326 -98.6333 19.9326],2.419,1.443,4.628,3.088,3.296,1.85,5.771,4.115,133.0,491.0
2015-04-29,MexicoCity,Mexico,-99.1333,19.4326,[-99.6333 18.9326 -98.6333 19.9326],2.364,1.305,4.628,3.077,3.205,1.785,5.726,4.048,125.0,514.0
2015-04-30,MexicoCity,Mexico,-99.1333,19.4326,[-99.6333 18.9326 -98.6333 19.9326],2.342,1.298,4.581,2.956,3.059,1.707,5.605,3.895,140.0,545.0
2015-05-01,MexicoCity,Mexico,-99.1333,19.4326,[-99.6333 18.9326 -98.6333 19.9326],2.489,1.332,4.628,3.188,3.139,1.712,5.234,3.871,160.0,559.0
2015-05-02,MexicoCity,Mexico,-99.1333,19.4326,[-99.6333 18.9326 -98.6333 19.9326],2.364,1.324,4.581,2.967,3.147,1.763,5.249,3.829,142.0,555.0
2015-05-03,MexicoCity,Mexico,-99.1333,19.4326,[-99.6333 18.9326 -98.6333 19.9326],2.394,1.443,4.581,3.075,3.175,1.797,5.279,3.864,140.0,549.0
2015-05-04,MexicoCity,Mexico,-99.1333,19.4326,[-99.6333 18.9326 -98.6333 19.9326],2.497,1.709,4.532,3.17,3.372,1.95,5.439,3.994,132.0,562.0
2015-05-05,MexicoCity,Mexico,-99.1333,19.4326,[-99.6333 18.9326 -98.6333 19.9326],2.497,1.709,4.532,3.174,3.475,1.94,5.576,4.031,133.0,538.0
2015-05-06,MexicoCity,Mexico,-99.1333,19.4326,[-99.6333 18.9326 -98.6333 19.9326],2.609,1.715,4.555,3.273,3.386,1.989,5.503,4.038,127.0,543.0
2015-05-07,MexicoCity,Mexico,-99.1333,19.4326,[-99.6333 18.9326 -98.6333 19.9326],2.609,1.709,4.555,3.25,3.388,2.082,5.474,4.023,131.0,538.0
2015-05-08,MexicoCity,Mexico,-99.1333,19.4326,[-99.6333 18.9326 -98.6333 19.9326],2.609,1.709,4.555,3.239,3.597,2.166,5.49,4.071,133.0,567.0
2015-05-09,MexicoCity,Mexico,-99.1333,19.4326,[-99.6333 18.9326 -98.6333 19.9326],2.529,1.657,4.555,3.227,3.512,2.177,5.303,4.045,124.0,549.0
2015-05-10,MexicoCity,Mexico,-99.1333,19.4326,[-99.6333 18.9326 -98.6333 19.9326],2.529,1.657,4.562,3.213,3.576,2.198,5.591,4.093,137.0,555.0
2015-05-11,MexicoCity,Mexico,-99.1333,19.4326,[-99.6333 18.9326 -98.6333 19.9326],2.706,1.792,4.688,3.392,3.583,2.229,5.556,4.168,137.0,558.0
2015-05-12,MexicoCity,Mexico,-99.1333,19.4326,[-99.6333 18.9326 -98.6333 19.9326],3.085,1.805,4.99,3.69,3.606,2.231,5.268,4.115,148.0,539.0
2015-05-13,MexicoCity,Mexico,-99.1333,19.4326,[-99.6333 18.9326 -98.6333 19.9326],2.987,1.717,5.445,3.776,3.633,2.217,5.336,4.136,127.0,555.0
2015-05-14,MexicoCity,Mexico,-99.1333,19.4326,[-99.6333 18.9326 -98.6333 19.9326],2.987,1.715,5.083,3.705,3.67,2.325,5.39,4.255,141.0,533.0
2015-05-15,MexicoCity,Mexico,-99.1333,19.4326,[-99.6333 18.9326 -98.6333 19.9326],3.408,1.832,5.413,3.958,3.625,2.409,5.354,4.291,126.0,554.0
2015-05-16,MexicoCity,Mexico,-99.1333,19.4326,[-99.6333 18.9326 -98.6333 19.9326],3.408,1.832,5.281,3.851,3.726,2.564,5.59,4.47,97.0,542.0
2015-05-17,MexicoCity,Mexico,-99.1333,19.4326,[-99.6333 18.9326 -98.6333 19.9326],3.742,2.201,5.413,4.055,3.806,2.615,5.766,4.56,88.0,515.0
2015-05-18,MexicoCity,Mexico,-99.1333,19.4326,[-99.6333 18.9326 -98.6333 19.9326],3.942,2.201,5.413,4.023,3.768,2.537,5.78,4.426,76.0,511.0
2015-05-19,MexicoCity,Mexico,-99.1333,19.4326,[-99.6333 18.9326 -98.6333 19.9326],3.942,2.201,5.61,4.031,3.654,2.481,5.608,4.311,78.0,502.0
2015-05-20,MexicoCity,Mexico,-99.1333,19.4326,[-99.6333 18.9326 -98.6333 19.9326],3.942,2.201,5.61,4.018,3.661,2.479,5.564,4.32,78.0,515.0
2015-05-21,MexicoCity,Mexico,-99.1333,19.4326,[-99.6333 18.9326 -98.6333 19.9326],3.942,2.201,5.413,3.961,3.784,2.496,5.687,4.356,80.0,492.0
2015-05-22,MexicoCity,Mexico,-99.1333,19.4326,[-99.6333 18.9326 -98.6333 19.9326],3.942,2.201,5.61,4.016,3.762,2.521,5.605,4.306,76.0,497.0
2015-05-23,MexicoCity,Mexico,-99.1333,19.4326,[-99.6333 18.9326 -98.6333 19.9326],3.942,2.201,5.675,4.044,3.704,2.486,5.656,4.31,74.0,492.0
2015-05-24,MexicoCity,Mexico,-99.1333,19.4326,[-99.6333 18.9326 -98.6333 19.9326],3.942,2.201,5.675,4.044,3.732,2.487,5.657,4.314,74.0,520.0
2015-05-25,MexicoCity,Mexico,-99.1333,19.4326,[-99.6333 18.9326 -98.6333 19.9326],4.447,2.317,5.707,4.197,3.795,2.473,5.622,4.328,61.0,503.0
2015-05-26,MexicoCity,Mexico,-99.1333,19.4326,[-99.6333 18.9326 -98.6333 19.9326],4.447,2.317,5.911,4.346,3.73,2.495,5.53,4.283,55.0,511.0
2015-05-27,MexicoCity,Mexico,-99.1333,19.4326,[-99.6333 18.9326 -98.6333 19.9326],3.942,2.352,5.281,4.17,3.666,2.478,5.486,4.276,56.0,514.0
2015-05-28,MexicoCity,Mexico,-99.1333,19.4326,[-99.6333 18.9326 -98.6333 19.9326],4.839,2.624,6.372,5.014,3.677,2.481,5.381,4.242,66.0,496.0
2015-05-29,MexicoCity,Mexico,-99.1333,19.4326,[-99.6333 18.9326 -98.6333 19.9326],5.226,2.893,8.1,5.749,3.59,2.426,5.543,4.237,52.0,513.0
2015-05-30,MexicoCity,Mexico,-99.1333,19.4326,[-99.6333 18.9326 -98.6333 19.9326],5.226,2.868,8.1,5.689,3.783,2.394,5.68,4.287,53.0,493.0
2015-05-31,MexicoCity,Mexico,-99.1333,19.4326,[-99.6333 18.9326 -98.6333 19.9326],5.226,2.868,8.1,5.689,3.715,2.37,5.38,4.092,53.0,513.0
2015-06-01,MexicoCity,Mexico,-99.1333,19.4326,[-99.6333 18.9326 -98.6333 19.9326],3.692,2.146,6.052,4.483,3.55,2.3,5.163,3.961,79.0,543.0
2015-06-02,MexicoCity,Mexico,-99.1333,19.4326,[-99.6333 18.9326 -98.6333 19.9326],3.986,2.236,6.225,4.816,3.764,2.358,5.345,4.141,107.0,559.0
2015-06-03,MexicoCity,Mexico,-99.1333,19.4326,[-99.6333 18.9326 -98.6333 19.9326],3.692,2.146,6.225,4.656,3.472,2.248,5.074,3.94,104.0,557.0
2015-06-04,MexicoCity,Mexico,-99.1333,19.4326,[-99.6333 18.9326 -98.6333 19.9326],3.763,2.12,6.382,4.749,3.325,2.17,4.923,3.906,125.0,548.0
2015-06-05,MexicoCity,Mexico,-99.1333,19.4326,[-99.6333 18.9326 -98.6333 19.9326],3.692,1.954,6.225,4.71,3.346,2.137,4.857,3.866,130.0,561.0
2015-06-06,MexicoCity,Mexico,-99.1333,19.4326,[-99.6333 18.9326 -98.6333 19.9326],3.813,2.12,6.412,4.779,3.37,2.163,4.889,3.856,132.0,540.0
2015-06-07,MexicoCity,Mexico,-99.1333,19.4326,[-99.6333 18.9326 -98.6333 19.9326],3.813,2.12,6.412,4.779,3.329,2.127,4.847,3.785,132.0,546.0
2015-06-08,MexicoCity,Mexico,-99.1333,19.4326,[-99.6333 18.9326 -98.6333 19.9326],3.813,2.12,6.412,4.779,3.235,2.082,4.834,3.825,132.0,540.0
2015-06-09,MexicoCity,Mexico,-99.1333,19.4326,[-99.6333 18.9326 -98.6333 19.9326],3.763,1.909,6.382,4.646,3.217,2.01,4.741,3.782,150.0,569.0
2015-06-10,MexicoCity,Mexico,-99.1333,19.4326,[-99.6333 18.9326 -98.6333 19.9326],3.525,1.838,6.225,4.567,3.131,2.005,4.662,3.725,141.0,550.0
2015-06-11,MexicoCity,Mexico,-99.1333,19.4326,[-99.6333 18.9326 -98.6333 19.9326],3.525,1.783,5.829,4.418,3.164,2.027,4.519,3.632,130.0,559.0
2015-06-12,MexicoCity,Mexico,-99.1333,19.4326,[-99.6333 18.9326 -98.6333 19.9326],3.345,1.612,4.986,3.891,3.277,2.008,4.554,3.632,125.0,561.0
2015-06-13,MexicoCity,Mexico,-99.1333,19.4326,[-99.6333 18.9326 -98.6333 19.9326],3.322,1.549,4.928,3.795,3.067,2.057,4.31,3.483,130.0,544.0
2015-06-14,MexicoCity,Mexico,-99.1333,19.4326,[-99.6333 18.9326 -98.6333 19.9326],3.322,1.549,4.986,3.812,3.153,2.063,4.33,3.452,129.0,556.0
2015-06-15,MexicoCity,Mexico,-99.1333,19.4326,[-99.6333 18.9326 -98.6333 19.9326],3.341,1.734,4.928,3.8,3.069,2.022,4.301,3.412,146.0,538.0
2015-06-16,MexicoCity,Mexico,-99.1333,19.4326,[-99.6333 18.9326 -98.6333 19.9326],3.396,1.737,5.81,4.143,3.069,2.029,4.529,3.56,120.0,560.0